When you browse on this site, cookies collect data to enhance your experience and personalize the content and advertising you see.
Visit our Privacy Policy to learn more. By continuing to use the site, you agree to this use of cookies and data.
  • In Österreich
  • Länderverzeichnis
  • Für 7 Tage
  • Wassertemperatur
  • Satellitenkarten
  • Wetterkarte
  • News
  • Widgets
  • user-avatar
    Anmelden

    Stündliche Wetter Szronka

    Heute, 16 Februar, Samstag

    Zeit Temperatur Niederschläge Wind Luftdruck Luftfeuchtigkeit
    00:00 +1°C° 0 mm 2 m/S 759 mmHg 97%
    01:00 +1°C° 0 mm 2 m/S 759 mmHg 96%
    02:00 +1°C° 0 mm 2 m/S 758 mmHg 96%
    03:00 +1°C° 0 mm 2 m/S 758 mmHg 95%
    04:00 +1°C° 0 mm 2 m/S 758 mmHg 95%
    05:00 +1°C° 0 mm 2 m/S 758 mmHg 93%
    06:00 +1°C° 0 mm 2 m/S 758 mmHg 92%
    07:00 -1°C° 0 mm 2 m/S 758 mmHg 90%
    08:00 +2°C° 0 mm 2 m/S 757 mmHg 83%
    09:00 +2°C° 0 mm 3 m/S 757 mmHg 75%
    10:00 +3°C° 0 mm 3 m/S 757 mmHg 68%
    11:00 +4°C° 0 mm 3 m/S 757 mmHg 64%
    12:00 +5°C° 0 mm 4 m/S 756 mmHg 61%
    13:00 +6°C° 0 mm 4 m/S 756 mmHg 58%
    14:00 +6°C° 0 mm 4 m/S 756 mmHg 60%
    15:00 +6°C° 0 mm 4 m/S 755 mmHg 61%
    16:00 +6°C° 0 mm 4 m/S 755 mmHg 63%
    17:00 +5°C° 0 mm 4 m/S 754 mmHg 65%
    18:00 +4°C° 0 mm 4 m/S 754 mmHg 66%
    19:00 +3°C° 0 mm 4 m/S 754 mmHg 67%
    20:00 +3°C° 0 mm 4 m/S 754 mmHg 70%
    21:00 +3°C° 0 mm 4 m/S 753 mmHg 72%
    22:00 +3°C° 0 mm 4 m/S 753 mmHg 74%
    23:00 +1°C° 0 mm 4 m/S 753 mmHg 78%

    Morgen, 17 Februar, Sonntag

    Zeit Temperatur Niederschläge Wind Luftdruck Luftfeuchtigkeit
    00:00 +1°C° 0 mm 4 m/S 753 mmHg 82%
    01:00 +1°C° 0 mm 4 m/S 753 mmHg 85%
    02:00 +1°C° 0 mm 4 m/S 753 mmHg 87%
    03:00 0°C° 0 mm 4 m/S 753 mmHg 88%
    04:00 0°C° 0 mm 4 m/S 753 mmHg 89%
    05:00 0°C° 0 mm 4 m/S 753 mmHg 90%
    06:00 0°C° 0 mm 4 m/S 753 mmHg 91%
    07:00 0°C° 0 mm 4 m/S 753 mmHg 92%
    08:00 +1°C° 0 mm 4 m/S 753 mmHg 90%
    09:00 +3°C° 0 mm 4 m/S 754 mmHg 88%
    10:00 +3°C° 0 mm 5 m/S 754 mmHg 86%
    11:00 +3°C° 0 mm 5 m/S 754 mmHg 87%
    12:00 +4°C° 0 mm 4 m/S 754 mmHg 88%
    13:00 +4°C° 0 mm 4 m/S 754 mmHg 89%
    14:00 +4°C° 0 mm 4 m/S 754 mmHg 89%
    15:00 +4°C° 0 mm 3 m/S 754 mmHg 90%
    16:00 +4°C° 0 mm 3 m/S 754 mmHg 90%
    17:00 +3°C° 0 mm 3 m/S 754 mmHg 91%
    18:00 +4°C° 0 mm 2 m/S 755 mmHg 92%
    19:00 +4°C° 0 mm 2 m/S 755 mmHg 93%
    20:00 +4°C° 0 mm 2 m/S 755 mmHg 93%
    21:00 +5°C° 0 mm 1 m/S 755 mmHg 93%
    22:00 +4°C° 0 mm 1 m/S 755 mmHg 93%
    23:00 +4°C° 0 mm 1 m/S 755 mmHg 93%

    übermorgen, 18 Februar, Montag

    Zeit Temperatur Niederschläge Wind Luftdruck Luftfeuchtigkeit
    00:00 +4°C° 0 mm 1 m/S 755 mmHg 93%
    01:00 +4°C° 0 mm 1 m/S 755 mmHg 93%
    02:00 +3°C° 0 mm 1 m/S 755 mmHg 93%
    03:00 +3°C° 0 mm 1 m/S 755 mmHg 93%
    04:00 +3°C° 0 mm 1 m/S 754 mmHg 93%
    05:00 +2°C° 0 mm 1 m/S 754 mmHg 93%
    06:00 +2°C° 0 mm 1 m/S 754 mmHg 93%
    07:00 +2°C° 0 mm 1 m/S 754 mmHg 93%
    08:00 +3°C° 0 mm 2 m/S 754 mmHg 89%
    09:00 +4°C° 0 mm 2 m/S 754 mmHg 85%
    10:00 +4°C° 0 mm 3 m/S 755 mmHg 81%
    11:00 +5°C° 0 mm 3 m/S 754 mmHg 78%
    12:00 +7°C° 0 mm 3 m/S 754 mmHg 75%
    13:00 +6°C° 0 mm 4 m/S 754 mmHg 73%
    14:00 +6°C° 0 mm 4 m/S 753 mmHg 75%
    15:00 +7°C° 0 mm 3 m/S 753 mmHg 77%
    16:00 +7°C° 0 mm 3 m/S 753 mmHg 78%
    17:00 +5°C° 0 mm 3 m/S 752 mmHg 82%
    18:00 +4°C° 0 mm 3 m/S 752 mmHg 86%
    19:00 +3°C° 0 mm 4 m/S 752 mmHg 90%
    20:00 +3°C° 0 mm 4 m/S 752 mmHg 90%
    21:00 +3°C° 0 mm 4 m/S 752 mmHg 90%
    22:00 +1°C° 0 mm 4 m/S 752 mmHg 89%
    23:00 +2°C° 0 mm 3 m/S 751 mmHg 89%

    19 Februar, Dienstag

    Zeit Temperatur Niederschläge Wind Luftdruck Luftfeuchtigkeit
    00:00 +1°C° 0 mm 3 m/S 751 mmHg 88%
    01:00 +1°C° 0 mm 3 m/S 751 mmHg 87%
    02:00 +1°C° 0 mm 3 m/S 750 mmHg 87%
    03:00 0°C° 0 mm 3 m/S 750 mmHg 87%
    04:00 0°C° 0 mm 3 m/S 749 mmHg 87%
    05:00 0°C° 0 mm 3 m/S 749 mmHg 87%
    06:00 0°C° 0 mm 3 m/S 749 mmHg 88%
    07:00 0°C° 0 mm 3 m/S 749 mmHg 89%
    08:00 0°C° 0 mm 4 m/S 749 mmHg 82%
    09:00 +3°C° 0 mm 4 m/S 748 mmHg 75%
    10:00 +3°C° 0 mm 5 m/S 748 mmHg 68%
    11:00 +5°C° 0 mm 5 m/S 748 mmHg 65%
    12:00 +6°C° 0 mm 5 m/S 748 mmHg 63%
    13:00 +7°C° 0 mm 5 m/S 747 mmHg 61%
    14:00 +7°C° 0 mm 5 m/S 747 mmHg 61%
    15:00 +7°C° 0 mm 5 m/S 746 mmHg 62%
    16:00 +7°C° 0 mm 5 m/S 746 mmHg 63%
    17:00 +6°C° 0 mm 5 m/S 746 mmHg 65%
    18:00 +6°C° 0 mm 5 m/S 746 mmHg 68%
    19:00 +5°C° 0 mm 5 m/S 746 mmHg 71%
    20:00 +5°C° 0.2 mm 5 m/S 746 mmHg 76%
    21:00 +5°C° 0.2 mm 5 m/S 746 mmHg 82%
    22:00 +3°C° 0.2 mm 5 m/S 747 mmHg 87%
    23:00 +3°C° 0 mm 5 m/S 747 mmHg 88%

    20 Februar, Mittwoch

    Zeit Temperatur Niederschläge Wind Luftdruck Luftfeuchtigkeit
    00:00 +2°C° 0 mm 6 m/S 747 mmHg 89%
    01:00 +2°C° 0 mm 6 m/S 747 mmHg 90%
    02:00 +2°C° 0 mm 6 m/S 747 mmHg 89%
    03:00 +2°C° 0 mm 6 m/S 747 mmHg 88%
    04:00 0°C° 0 mm 7 m/S 747 mmHg 87%
    05:00 0°C° 0 mm 7 m/S 748 mmHg 87%
    06:00 0°C° 0 mm 7 m/S 748 mmHg 86%
    07:00 +1°C° 0 mm 6 m/S 748 mmHg 86%
    08:00 0°C° 0 mm 7 m/S 749 mmHg 81%
    09:00 +1°C° 0 mm 8 m/S 749 mmHg 76%
    10:00 +2°C° 0 mm 8 m/S 750 mmHg 72%
    11:00 +2°C° 0 mm 8 m/S 750 mmHg 72%
    12:00 +2°C° 0 mm 8 m/S 750 mmHg 72%
    13:00 +1°C° 0 mm 8 m/S 750 mmHg 72%
    14:00 +2°C° 0 mm 7 m/S 750 mmHg 73%
    15:00 +2°C° 0 mm 7 m/S 751 mmHg 74%
    16:00 +2°C° 0 mm 7 m/S 751 mmHg 75%
    17:00 +2°C° 0.1 mm 6 m/S 751 mmHg 77%
    18:00 +2°C° 0.1 mm 6 m/S 751 mmHg 79%
    19:00 +2°C° 0.1 mm 5 m/S 752 mmHg 81%
    20:00 +2°C° 0 mm 5 m/S 752 mmHg 82%
    21:00 +2°C° 0 mm 5 m/S 752 mmHg 83%
    22:00 +1°C° 0 mm 4 m/S 752 mmHg 85%
    23:00 +1°C° 0 mm 4 m/S 752 mmHg 88%

    21 Februar, Donnerstag

    Zeit Temperatur Niederschläge Wind Luftdruck Luftfeuchtigkeit
    00:00 +1°C° 0 mm 3 m/S 752 mmHg 91%
    01:00 +1°C° 0 mm 3 m/S 752 mmHg 94%
    02:00 +1°C° 0.1 mm 3 m/S 752 mmHg 95%
    03:00 +2°C° 0.1 mm 2 m/S 752 mmHg 96%
    04:00 +3°C° 0.1 mm 2 m/S 752 mmHg 97%
    05:00 +3°C° 0.5 mm 2 m/S 753 mmHg 97%
    06:00 +3°C° 0.5 mm 2 m/S 753 mmHg 97%
    07:00 +3°C° 0.5 mm 2 m/S 753 mmHg 97%
    08:00 +4°C° 0.6 mm 2 m/S 753 mmHg 97%
    09:00 +4°C° 0.6 mm 2 m/S 753 mmHg 97%
    10:00 +3°C° 0.6 mm 3 m/S 753 mmHg 96%
    11:00 +4°C° 0.2 mm 3 m/S 753 mmHg 94%
    12:00 +4°C° 0.2 mm 3 m/S 753 mmHg 91%
    13:00 +5°C° 0.2 mm 4 m/S 753 mmHg 88%
    14:00 +5°C° 0.1 mm 3 m/S 752 mmHg 88%
    15:00 +5°C° 0.1 mm 3 m/S 752 mmHg 87%
    16:00 +6°C° 0.1 mm 2 m/S 752 mmHg 87%
    17:00 +5°C° 0.1 mm 2 m/S 752 mmHg 89%
    18:00 +5°C° 0.1 mm 2 m/S 752 mmHg 91%
    19:00 +5°C° 0.1 mm 2 m/S 752 mmHg 94%
    20:00 +4°C° 0.2 mm 2 m/S 752 mmHg 95%
    21:00 +4°C° 0.2 mm 2 m/S 751 mmHg 96%
    22:00 +4°C° 0.2 mm 2 m/S 751 mmHg 97%
    23:00 +4°C° 0.1 mm 2 m/S 751 mmHg 97%
    Mehr zeigen